Wind_Speed
49 45 44 44 40 38 38 36 33 31 28 28 26 25 23 25 23 19 18 15 14 14 14 14 14 13 13 14 16 17 18 20 22 22 21 21 21 20 20 20 19 18 15
53 52 49 47 45 42 41 39 36 35 32 29 28 27 25 23 22 21 19 18 17 17 16 16 16 16 16 16 17 18 18 20 20 20 21 21 22 22 21 21 20 18 17
56 57 54 49 48 45 43 41 39 36 35 33 31 29 28 26 23 21 19 17 19 19 18 18 18 18 18 18 19 18 20 21 20 20 20 19 21 23 23 21 21 21 20
61 62 61 58 54 50 46 42 40 39 36 36 35 32 31 29 27 24 20 19 18 20 20 19 20 19 19 20 20 22 21 21 20 20 20 21 21 21 22 23 23 22 23
64 65 63 63 59 57 53 50 46 43 41 38 38 36 34 32 30 28 26 24 22 21 22 21 21 22 21 21 23 23 24 22 21 20 22 23 24 24 23 23 25 26 26
68 67 67 64 61 60 59 55 53 49 46 44 41 40 39 37 33 30 30 29 27 25 25 25 24 23 23 23 23 23 22 22 21 22 23 25 25 26 24 26 25 25 25
61 63 68 67 64 59 60 62 58 54 52 48 45 43 42 41 38 33 32 32 31 30 28 27 26 26 25 26 26 25 21 20 20 21 25 25 25 25 25 25 25 25 27
47 55 62 70 69 67 62 60 63 62 58 56 53 50 46 46 43 38 36 35 34 32 33 31 29 29 28 27 27 28 25 23 23 23 22 24 26 29 30 29 27 28 30
35 40 48 57 68 70 70 67 64 64 65 61 59 56 52 49 49 45 41 37 36 35 33 33 32 31 30 28 27 28 27 26 26 24 25 25 26 28 30 30 30 31 33
39 42 41 48 52 58 65 67 67 67 66 65 64 61 58 54 53 52 48 43 40 39 36 34 32 30 30 29 27 27 28 27 28 30 32 29 29 32 31 31 32 34 35
35 40 38 39 46 51 57 64 68 70 72 71 68 66 63 59 59 56 54 52 49 45 42 40 37 35 33 32 30 30 29 30 32 34 35 35 35 34 34 34 36 37 37
46 40 39 39 38 45 49 56 63 67 69 72 74 69 67 64 63 62 57 56 54 52 47 44 42 40 38 37 36 37 34 36 38 37 40 37 36 37 41 39 38 38 39
53 50 46 44 45 45 46 51 56 60 64 68 69 71 72 69 69 67 61 60 58 55 53 52 47 46 44 42 41 39 39 40 41 43 43 40 42 41 45 42 39 41 40
61 56 55 55 49 45 48 48 54 55 57 61 64 68 71 73 74 73 67 63 60 59 54 53 52 50 49 49 49 47 47 47 47 48 44 42 45 50 50 45 44 45 42
64 62 61 57 63 56 51 53 57 56 60 62 65 68 71 72 74 74 71 68 65 63 61 56 54 53 52 53 51 51 52 52 51 53 52 49 48 53 51 47 44 44 45
69 66 66 65 65 62 57 54 64 54 54 61 60 58 63 68 68 74 73 73 70 66 66 64 62 58 57 57 54 55 54 53 56 58 58 56 53 57 57 51 46 44 47
74 71 67 68 69 66 65 65 58 57 56 60 58 62 60 63 65 68 74 78 78 75 71 68 66 62 60 61 60 59 58 59 59 57 55 56 61 59 58 55 48 47 47
74 75 73 70 69 67 66 64 64 54 63 62 60 58 58 57 62 65 66 67 77 76 77 75 69 65 65 65 61 62 61 62 64 66 66 57 58 63 64 63 51 47 50
77 75 75 74 73 72 69 67 65 63 67 67 54 49 57 56 54 59 64 69 63 67 71 69 69 67 67 68 68 63 60 63 67 66 64 67 67 64 57 60 50 53 55
81 76 74 76 76 74 73 73 73 72 70 67 58 64 59 61 62 60 66 64 63 68 64 59 63 60 55 58 60 59 63 62 60 61 58 58 53 55 55 57 56 56 61
81 75 78 74 78 78 76 74 76 75 73 65 66 66 54 55 61 65 74 73 66 63 68 57 56 56 58 59 57 55 54 55 59 59 63 62 61 61 54 59 54 54 54
73 73 80 79 76 77 78 79 77 76 76 73 71 70 66 48 56 61 63 73 69 64 62 59 56 54 55 53 54 58 57 57 56 57 56 57 60 62 55 50 53 56 59
70 71 74 78 77 76 76 77 78 78 77 79 74 73 70 66 61 60 68 70 63 69 65 63 56 51 50 56 58 60 61 55 53 58 58 60 57 57 61 60 61 62 62
77 74 69 71 77 79 80 79 77 75 75 78 76 73 71 70 66 62 73 67 64 61 63 63 64 56 50 56 58 58 58 59 64 61 58 57 61 62 68 69 61 66 64
75 71 71 69 78 82 81 80 80 78 76 77 77 73 70 69 67 61 71 75 70 68 67 65 68 59 57 61 60 63 68 67 63 57 64 69 71 64 69 65 67 70 68
69 73 74 81 85 86 82 77 78 77 79 77 78 73 72 69 63 64 69 78 72 70 68 65 65 65 66 70 71 70 68 69 73 72 66 72 76 68 74 71 71 68 72
Wind_Direction
244 239 238 241 239 239 238 235 236 229 234 241 241 244 244 247 243 248 251 255 268 266 271 278 282 291 300 313 321 325 328 332 332 329 327 329 327 327 326 329 335 342 343
243 243 241 244 246 246 246 241 238 238 232 237 241 243 244 245 244 242 245 256 257 260 267 272 276 283 293 304 314 321 324 332 332 336 335 333 330 327 325 326 328 332 330
240 243 244 242 246 247 248 248 243 238 240 237 238 243 246 246 241 239 245 252 256 255 261 270 272 278 287 295 306 314 317 320 325 328 337 335 334 331 323 320 323 326 326
246 247 249 246 246 245 245 246 246 241 241 244 241 240 245 247 248 244 243 248 253 255 257 264 271 275 283 289 298 306 314 315 316 320 325 330 332 330 325 321 319 319 320
246 249 249 250 248 245 245 245 246 246 241 242 244 243 243 246 246 248 248 247 248 252 254 260 267 273 276 283 292 300 309 311 312 316 317 320 322 325 325 324 319 318 319
245 245 248 250 249 244 244 245 246 246 247 241 241 244 244 245 247 250 252 249 247 249 253 258 262 268 274 280 285 293 302 305 311 314 316 319 318 321 323 326 322 321 321
243 244 243 246 248 247 245 246 246 245 245 243 241 242 245 244 244 245 252 256 252 250 252 257 261 263 268 275 281 287 295 301 303 309 309 314 314 316 320 318 320 316 316
247 246 245 245 246 248 246 244 246 246 246 245 244 245 245 246 246 244 246 253 256 256 254 254 256 260 264 269 277 282 289 292 296 302 307 311 310 311 311 312 313 315 312
248 244 248 246 245 246 249 247 245 247 246 246 246 247 248 247 246 245 244 248 252 256 256 256 255 258 262 267 271 278 284 288 293 298 305 304 307 312 314 314 310 312 312
237 246 251 244 247 246 246 248 246 244 244 245 245 247 249 249 248 247 246 245 247 249 253 254 257 258 259 262 265 272 279 283 288 294 300 302 305 305 305 306 308 308 308
224 239 247 244 248 247 247 247 246 244 245 245 244 245 248 248 249 249 249 250 249 247 248 252 256 259 260 262 265 269 272 278 280 284 292 296 301 301 300 302 304 306 309
230 222 236 242 242 244 252 250 245 245 244 244 246 247 244 247 249 249 250 251 252 251 250 251 256 258 261 262 265 269 273 276 280 285 292 292 295 304 303 298 299 299 303
247 242 223 234 230 237 248 252 248 244 244 244 244 247 246 245 247 249 248 250 252 253 255 254 254 258 261 263 266 269 273 278 281 287 290 288 294 293 302 299 298 299 303
250 246 247 242 228 233 240 250 248 244 245 244 243 245 245 244 245 248 249 250 253 254 254 256 258 260 263 267 271 272 275 278 283 289 291 290 296 298 294 297 302 300 296
247 249 249 252 240 248 245 244 243 245 250 251 247 246 245 245 244 244 246 249 252 255 256 255 257 261 265 265 267 271 275 279 280 286 291 291 293 295 292 290 292 297 293
245 247 249 251 253 257 252 249 237 250 253 250 248 249 250 246 248 245 246 246 250 254 254 257 258 261 263 266 268 272 276 278 280 283 289 295 288 290 285 288 289 290 292
245 244 247 249 252 253 257 261 239 253 248 248 248 260 254 245 245 247 247 247 250 251 253 256 258 260 263 266 267 269 273 275 280 286 287 288 283 282 282 286 289 290 289
246 245 244 247 250 254 256 258 260 246 261 261 268 253 249 242 243 248 248 250 250 250 251 255 258 259 266 264 264 269 271 274 276 277 281 279 279 283 286 290 287 290 289
245 245 245 244 246 251 255 258 260 261 265 267 265 255 250 245 244 246 250 251 256 253 252 254 257 260 263 264 266 268 270 272 275 278 280 280 282 284 286 282 285 289 290
245 244 246 246 246 249 251 255 260 263 265 264 257 262 248 248 255 246 249 253 246 250 250 253 252 255 255 269 264 267 270 272 276 278 278 277 279 281 281 283 285 290 295
250 249 249 249 248 247 249 250 254 257 261 263 264 263 260 259 256 255 251 247 245 246 247 244 252 260 264 265 265 264 267 272 274 275 277 281 286 286 290 288 294 294 298
251 250 246 250 249 249 247 249 252 255 257 260 264 267 268 248 260 262 254 250 247 240 242 248 247 253 259 260 262 264 267 273 273 275 277 279 285 291 297 292 294 295 302
250 250 249 247 248 249 247 248 250 254 255 257 261 262 263 262 269 258 247 246 242 239 242 241 241 250 257 258 261 266 267 268 274 275 277 284 291 290 292 292 297 300 300
246 246 248 248 247 249 249 249 250 253 256 258 260 262 264 262 266 259 241 235 238 237 241 243 246 247 250 256 266 266 268 267 272 283 287 281 282 283 294 294 294 298 295
243 245 244 246 245 245 247 248 252 255 255 256 259 259 264 263 263 251 241 236 239 245 249 245 245 244 250 257 260 259 259 272 277 282 282 284 286 287 292 292 293 291 287
234 236 238 241 243 245 248 251 255 256 255 255 256 258 260 259 245 238 239 236 239 244 242 245 244 250 255 259 261 266 273 277 277 283 274 281 283 282 289 288 295 292 288
Height
10868 10872 10873 10875 10880 10883 10887 10890 10893 10894 10895 10898 10899 10899 10900 10901 10903 10904 10905 10904 10903 10903 10903 10903 10903 10903 10903 10902 10901 10901 10900 10899 10898 10896 10894 10893 10892 10890 10889 10888 10886 10884 10882
10862 10864 10869 10872 10875 10879 10882 10886 10889 10891 10892 10894 10897 10897 10898 10899 10900 10901 10902 10902 10902 10901 10901 10900 10900 10901 10900 10900 10899 10899 10898 10897 10896 10894 10893 10891 10890 10889 10887 10886 10884 10883 10881
10855 10857 10863 10869 10871 10874 10877 10881 10884 10887 10889 10890 10892 10895 10896 10896 10897 10898 10899 10900 10900 10898 10898 10898 10898 10898 10899 10898 10898 10897 10896 10895 10894 10893 10892 10890 10889 10888 10886 10884 10883 10882 10880
10846 10851 10856 10862 10867 10869 10872 10875 10879 10882 10884 10887 10888 10890 10892 10893 10894 10895 10896 10897 10897 10897 10896 10895 10895 10895 10896 10896 10896 10895 10893 10892 10892 10891 10890 10889 10887 10886 10884 10883 10882 10880 10879
10840 10842 10848 10853 10859 10863 10866 10869 10872 10876 10879 10881 10884 10885 10886 10888 10890 10891 10892 10892 10893 10894 10894 10893 10892 10892 10893 10893 10892 10892 10891 10890 10889 10888 10887 10886 10885 10884 10882 10881 10879 10878 10877
10831 10835 10838 10843 10848 10855 10857 10861 10865 10869 10872 10875 10877 10879 10881 10882 10885 10887 10887 10888 10888 10890 10890 10890 10889 10889 10889 10889 10888 10888 10888 10887 10887 10886 10884 10883 10882 10880 10879 10878 10876 10875 10874
10822 10825 10828 10831 10837 10844 10850 10853 10857 10860 10864 10867 10870 10872 10874 10876 10878 10881 10882 10884 10884 10885 10885 10886 10886 10885 10885 10886 10885 10885 10885 10885 10884 10883 10882 10880 10879 10878 10876 10875 10874 10872 10871
10814 10817 10819 10822 10827 10833 10839 10845 10849 10852 10856 10859 10862 10865 10867 10869 10872 10875 10875 10877 10879 10879 10880 10881 10881 10881 10881 10882 10882 10881 10882 10881 10880 10879 10878 10877 10876 10874 10873 10872 10870 10869 10867
10804 10807 10810 10813 10816 10822 10827 10834 10840 10844 10848 10851 10854 10857 10860 10862 10865 10867 10868 10870 10873 10874 10875 10875 10876 10876 10876 10876 10877 10877 10878 10877 10876 10875 10875 10874 10873 10871 10869 10867 10866 10865 10863
10796 10801 10804 10804 10808 10812 10816 10821 10827 10833 10837 10842 10845 10848 10852 10855 10856 10859 10861 10862 10865 10867 10869 10870 10870 10871 10870 10871 10872 10872 10872 10872 10871 10871 10870 10869 10868 10866 10865 10862 10861 10860 10858
10789 10792 10795 10800 10801 10802 10805 10809 10814 10821 10827 10832 10835 10839 10843 10846 10847 10850 10854 10855 10857 10859 10861 10863 10864 10865 10865 10866 10865 10867 10867 10866 10866 10865 10864 10863 10862 10861 10859 10857 10856 10854 10853
10778 10782 10785 10790 10794 10795 10796 10798 10802 10808 10813 10818 10824 10830 10833 10837 10837 10840 10845 10846 10848 10851 10852 10854 10856 10858 10858 10859 10860 10859 10861 10860 10859 10859 10858 10857 10856 10855 10852 10850 10849 10848 10846
10765 10771 10776 10778 10780 10784 10785 10787 10791 10795 10801 10806 10812 10818 10823 10828 10827 10829 10835 10836 10839 10842 10845 10847 10848 10850 10851 10851 10852 10853 10852 10853 10852 10851 10851 10851 10849 10848 10845 10844 10842 10841 10840
10752 10758 10763 10768 10772 10775 10777 10778 10782 10787 10791 10795 10800 10805 10809 10816 10818 10818 10825 10827 10830 10833 10836 10839 10840 10842 10844 10844 10844 10844 10844 10845 10844 10844 10842 10843 10843 10839 10837 10838 10836 10834 10832
10743 10746 10753 10755 10762 10767 10771 10773 10775 10779 10782 10787 10791 10794 10797 10803 10807 10809 10816 10818 10820 10824 10827 10830 10832 10835 10836 10836 10836 10836 10835 10836 10836 10835 10833 10835 10835 10830 10828 10829 10828 10827 10825
10732 10736 10740 10744 10748 10753 10759 10763 10766 10772 10773 10776 10781 10786 10788 10791 10797 10801 10805 10808 10809 10815 10816 10819 10822 10825 10826 10827 10827 10827 10827 10826 10826 10826 10825 10825 10825 10821 10820 10822 10821 10819 10817
10716 10722 10728 10732 10736 10741 10744 10749 10755 10760 10764 10767 10771 10775 10778 10781 10787 10789 10792 10795 10797 10802 10806 10809 10812 10815 10816 10817 10818 10818 10819 10818 10817 10815 10814 10814 10812 10809 10810 10812 10812 10811 10809
10703 10709 10714 10719 10724 10727 10732 10737 10744 10749 10753 10757 10762 10763 10766 10771 10777 10780 10780 10782 10783 10787 10794 10799 10803 10805 10807 10808 10809 10809 10810 10809 10806 10805 10804 10804 10800 10802 10803 10803 10803 10803 10801
10688 10693 10700 10707 10713 10716 10719 10724 10731 10739 10743 10746 10751 10755 10759 10764 10767 10769 10768 10769 10773 10779 10783 10788 10792 10795 10797 10797 10797 10800 10799 10797 10797 10794 10792 10792 10790 10790 10792 10794 10794 10793 10791
10671 10681 10687 10694 10699 10705 10710 10715 10718 10724 10729 10734 10738 10743 10752 10755 10755 10759 10758 10760 10762 10768 10772 10776 10779 10781 10785 10785 10786 10786 10786 10785 10785 10783 10781 10779 10777 10777 10780 10782 10785 10783 10781
10657 10669 10675 10682 10688 10694 10701 10706 10708 10712 10715 10722 10726 10732 10738 10745 10743 10747 10747 10749 10752 10755 10759 10765 10768 10772 10771 10773 10774 10773 10773 10774 10773 10772 10769 10766 10766 10767 10773 10772 10772 10773 10771
10644 10651 10661 10669 10675 10682 10690 10691 10697 10699 10705 10709 10713 10719 10725 10733 10735 10735 10736 10736 10741 10742 10749 10753 10756 10758 10760 10761 10761 10761 10762 10762 10759 10759 10757 10756 10757 10759 10760 10761 10760 10758 10756
10629 10636 10646 10654 10661 10667 10674 10678 10683 10687 10691 10695 10700 10704 10710 10716 10719 10723 10723 10726 10728 10732 10738 10740 10741 10744 10748 10751 10749 10749 10749 10747 10746 10745 10746 10749 10749 10748 10747 10747 10746 10744 10742
10607 10618 10631 10642 10649 10654 10658 10664 10669 10674 10679 10682 10685 10688 10694 10700 10706 10707 10710 10714 10717 10720 10723 10727 10728 10731 10735 10737 10735 10735 10735 10733 10732 10737 10735 10736 10740 10737 10736 10733 10732 10730 10728
10588 10602 10614 10626 10633 10636 10641 10651 10656 10661 10667 10669 10670 10674 10679 10685 10688 10691 10696 10702 10706 10708 10711 10714 10715 10718 10720 10722 10721 10720 10717 10722 10723 10725 10723 10723 10726 10724 10722 10721 10720 10718 10714
10570 10580 10593 10601 10608 10618 10629 10639 10640 10646 10651 10654 10657 10664 10666 10671 10671 10675 10681 10687 10692 10695 10698 10700 10703 10704 10705 10706 10706 10707 10708 10710 10710 10711 10711 10708 10707 10709 10708 10705 10702 10700 10699